Location: Newark
(27.9675°N, 86.8869°E)
Time: 08:42:39
(UTC+00:00)

deb Explorer IX - Pass Details

Date: 27 October 2019
Orbit: 546 x 1105 km, 38.8° (Epoch: 19 November)

Event Time Altitude Azimuth Distance (km) Brightness Sun altitude
Rises 12:41:46 0° 270° (W) 3,612 ? -15.9°
Reaches altitude 10° 12:47:40 10° 229° (SW) 2,814 ? -17.2°
Maximum altitude 12:48:20 10° 223° (SW) 2,816 ? -17.3°
Drops below altitude 10° 12:49:01 10° 217° (SW) 2,840 ? -17.5°
Sets 12:55:21 0° 177° (S) 3,882 ? -18.8°
